User: anonymous
Location: Cluny
(50.9333°N, 112.8167°W)
Time: 17:36:04
(UTC-06:00)
Language:

Cosmos 1743 Rocket - Orbit

View from above orbital plane
View from above orbital plane
View from above satellite
View from above satellite

Ground track
Ground track

The orbit data is extracted from the following two-line orbital elements,

1 16720U 86034B   14233.30813535  .00000156  00000-0  16362-4 0  5279
2 16720 082.5546 122.3486 0019008 259.7901 233.4485 14.82772286526464
Epoch (UTC): 21 August 2014 07:23:42
Eccentricity: 0.0019008
inclination: 82.5546°
perigee height: 607 km
apogee height: 634 km
right ascension of ascending node: 122.3486°
argument of perigee: 259.7901°
revolutions per day: 14.82772286
mean anomaly at epoch: 233.4485°
orbit number at epoch: 52646

The dashed part of the orbit path shows where the satellite is in the earth's shadow,  

DLR